Temp
12 12 12 12 10 12 15 17 15 15 14 13 12 13 12 11 11 10 10 11 10 12 12 12 11 11 11 11 11 11 11 10 10 10 10 10 10 10 9 9 9 9 9 9 9 8 8 7 7
11 11 11 11 11 15 16 15 15 13 13 13 13 13 12 10 9 9 11 10 11 11 11 11 11 11 11 11 10 10 10 10 10 10 10 9 9 9 9 9 9 9 9 9 9 9 8 8 7
11 11 11 11 13 15 16 14 13 12 12 13 13 12 11 10 10 10 10 10 11 11 11 11 11 11 11 11 10 10 9 9 9 9 9 9 9 9 9 9 9 9 9 9 9 9 9 8 8
11 10 11 11 14 15 14 13 12 13 12 12 12 11 11 10 8 8 8 9 11 11 11 11 11 11 11 11 11 10 9 9 8 8 8 8 9 9 9 9 8 9 9 8 9 9 9 8 8
9 9 11 13 14 14 13 12 11 12 12 12 12 10 10 9 9 10 10 11 11 11 11 11 10 10 10 10 10 10 10 9 8 8 8 8 8 8 8 8 8 8 8 8 8 8 8 8 8
8 10 12 14 15 13 12 11 11 11 11 11 11 11 9 10 11 10 11 10 10 10 10 10 10 10 10 10 9 9 9 9 9 8 8 8 7 7 7 8 8 8 8 8 8 8 8 8 8
8 10 12 14 14 13 12 11 11 11 11 10 11 10 9 9 9 10 10 10 10 10 10 10 10 10 10 10 9 9 9 8 8 8 8 8 7 7 7 7 7 7 8 8 8 8 8 8 8
9 10 11 13 14 13 11 11 10 10 10 10 10 10 9 9 9 9 9 7 10 9 9 9 9 9 10 9 9 9 9 9 9 9 8 8 8 7 7 6 6 7 7 7 7 7 8 8 8
8 9 12 14 14 11 11 11 9 9 9 9 9 9 9 9 9 9 9 6 8 9 9 9 9 9 9 9 9 9 8 9 9 9 8 8 8 8 8 8 7 6 6 6 7 7 7 7 8
8 10 12 11 11 11 10 10 9 9 9 9 8 8 9 9 9 9 8 8 9 10 9 10 10 9 9 9 9 9 8 8 8 8 8 8 8 8 8 8 7 7 7 6 6 6 7 7 8
9 10 10 9 10 9 9 9 8 8 9 9 8 7 7 7 8 9 9 9 9 10 10 9 9 8 8 8 8 8 8 8 8 8 8 8 8 7 7 7 7 7 6 6 6 6 6 7 7
8 9 9 9 9 10 9 8 8 8 8 8 7 8 7 5 8 9 9 9 9 9 9 9 8 8 8 8 8 8 7 7 8 8 8 7 7 7 7 6 6 7 6 6 6 6 6 6 6
8 8 9 8 8 10 9 9 7 7 7 7 8 8 5 7 9 9 9 9 8 9 9 8 8 8 8 8 8 8 7 7 7 7 7 7 7 6 6 6 6 6 6 6 6 6 6 6 6
8 8 8 7 7 7 7 8 8 7 7 6 6 5 5 6 8 7 7 7 8 8 8 8 8 8 8 8 8 7 7 7 6 6 7 7 6 6 6 6 6 6 6 7 6 6 5 6 6
6 7 8 8 7 7 7 8 8 7 7 6 5 5 4 5 7 7 7 7 8 8 8 8 8 8 8 8 7 7 7 7 7 6 6 6 6 5 5 5 5 5 6 6 6 6 5 5 5
6 6 7 9 8 6 7 8 9 7 6 6 6 5 4 4 6 6 6 6 6 6 7 7 7 7 7 7 7 7 7 6 6 5 5 5 5 5 5 5 5 5 5 5 5 5 5 5 5
6 8 8 9 8 7 7 8 8 7 5 5 5 4 3 4 7 6 5 5 5 5 5 6 6 6 7 7 7 6 6 6 6 6 5 4 4 4 4 4 4 4 4 4 4 4 5 5 5
8 8 9 10 8 7 7 7 7 7 7 5 5 3 3 4 6 5 5 4 5 5 5 5 4 5 5 5 6 6 6 6 6 5 4 3 3 4 4 4 3 3 4 4 4 4 4 4 4
8 9 9 9 9 7 6 6 6 6 7 6 4 2 2 3 4 5 5 5 5 5 5 5 5 5 5 5 5 5 5 5 4 4 4 2 2 3 2 3 3 3 3 3 3 4 4 4 4
7 7 7 8 8 8 7 6 6 6 7 5 4 2 3 3 3 4 4 4 4 4 4 4 4 4 4 4 4 4 3 4 3 3 3 2 1 1 1 1 2 2 2 2 3 3 3 3 4
6 6 7 7 8 7 6 6 6 6 6 5 4 3 4 3 2 3 4 3 4 4 4 4 4 4 3 3 2 2 2 2 2 2 2 1 1 1 1 1 1 1 2 2 2 3 3 3 3
6 6 6 6 6 6 6 7 8 6 6 4 5 4 4 3 3 3 3 3 3 3 3 3 3 3 3 2 1 1 2 1 1 1 -0 -0 -0 -0 -0 0 0 0 1 1 2 2 3 3 3
5 6 5 5 5 5 5 6 6 7 5 3 4 4 3 3 3 3 2 2 2 2 2 2 2 2 2 1 1 1 0 -0 -0 -1 -1 -1 -1 -1 -1 -2 -1 -0 -0 0 1 2 2 2 2
5 4 3 3 4 4 5 5 6 7 7 3 2 2 3 3 2 2 2 2 2 1 1 1 1 1 1 1 1 0 -0 -1 -1 -1 -1 -1 -1 -1 -1 -2 -2 -1 -1 -1 -0 1 1 1 2
4 2 3 3 4 4 6 6 6 6 6 4 2 1 2 2 2 1 1 1 1 1 1 1 0 0 0 0 -0 -0 -1 -1 -1 -2 -2 -2 -2 -2 -2 -2 -2 -2 -2 -1 -1 -0 0 1 1
3 2 4 4 5 7 7 7 6 5 4 3 3 3 3 2 2 1 0 0 0 0 0 0 -0 -1 -1 -1 -1 -1 -1 -1 -2 -2 -2 -2 -3 -3 -3 -3 -2 -2 -2 -1 -1 -1 -1 -1 -0
3 3 3 4 4 4 4 6 4 4 4 3 3 2 2 2 2 1 0 -0 -0 -0 -1 -1 -1 -2 -2 -2 -2 -2 -2 -2 -3 -3 -3 -3 -3 -3 -3 -3 -3 -3 -3 -4 -3 -2 -1 -1 -1
3 3 2 3 2 2 5 5 6 4 2 2 2 2 2 2 1 1 0 -0 -0 -1 -1 -1 -2 -2 -3 -3 -3 -3 -3 -3 -3 -3 -4 -4 -4 -4 -4 -4 -3 -3 -4 -5 -3 -2 -1 -1 0
2 2 3 2 2 3 3 4 3 3 2 1 1 1 1 1 1 0 0 -0 -1 -1 -1 -2 -3 -3 -3 -3 -3 -3 -4 -4 -4 -5 -5 -5 -5 -5 -5 -5 -5 -5 -4 -4 -3 -3 -2 -1 -1
3 2 2 2 2 2 2 3 3 2 1 0 1 0 1 0 0 -0 -1 -1 -1 -2 -2 -3 -3 -3 -4 -4 -4 -4 -4 -4 -5 -6 -6 -6 -6 -6 -6 -5 -5 -5 -5 -5 -5 -5 -3 -4 -4
Height
3152 3152 3153 3153 3159 3154 3147 3148 3147 3150 3154 3155 3156 3158 3157 3157 3154 3159 3160 3161 3160 3162 3164 3165 3166 3167 3168 3169 3170 3170 3171 3171 3172 3172 3172 3172 3172 3172 3172 3173 3173 3173 3172 3172 3171 3171 3171 3171 3171
3151 3152 3153 3153 3157 3150 3149 3148 3149 3149 3152 3154 3157 3160 3157 3158 3160 3159 3160 3159 3159 3161 3163 3164 3165 3166 3167 3168 3168 3169 3169 3170 3170 3171 3172 3172 3172 3172 3172 3172 3172 3172 3172 3172 3172 3172 3171 3171 3171
3150 3151 3153 3155 3154 3150 3149 3149 3150 3152 3154 3156 3159 3157 3156 3159 3160 3159 3160 3159 3159 3160 3162 3164 3165 3165 3166 3166 3166 3167 3167 3168 3168 3169 3170 3170 3171 3171 3172 3172 3172 3172 3172 3172 3172 3172 3172 3171 3171
3149 3152 3154 3153 3150 3151 3149 3150 3152 3156 3156 3157 3159 3156 3158 3158 3159 3158 3159 3157 3158 3160 3161 3162 3164 3164 3165 3165 3165 3165 3165 3165 3166 3167 3167 3168 3169 3169 3170 3171 3171 3171 3171 3171 3171 3171 3171 3171 3171
3149 3151 3154 3152 3149 3146 3148 3149 3153 3157 3156 3158 3160 3155 3155 3156 3156 3156 3156 3158 3159 3160 3161 3161 3162 3162 3163 3164 3163 3164 3164 3163 3164 3164 3164 3165 3166 3166 3167 3168 3169 3169 3169 3170 3170 3170 3169 3169 3169
3148 3152 3152 3146 3148 3145 3149 3149 3153 3155 3157 3157 3159 3157 3155 3155 3154 3155 3157 3157 3158 3158 3159 3160 3160 3161 3162 3162 3162 3163 3163 3163 3163 3163 3163 3162 3163 3163 3164 3164 3165 3166 3167 3168 3168 3167 3167 3167 3167
3147 3150 3150 3146 3146 3146 3149 3149 3153 3154 3156 3154 3156 3159 3154 3151 3155 3155 3156 3154 3157 3157 3158 3158 3159 3160 3160 3161 3161 3160 3160 3160 3160 3160 3160 3160 3160 3161 3161 3162 3162 3163 3164 3165 3165 3165 3165 3165 3165
3148 3148 3148 3144 3146 3145 3144 3147 3149 3152 3151 3152 3154 3158 3150 3149 3153 3155 3155 3153 3153 3154 3155 3154 3157 3157 3158 3159 3158 3158 3158 3158 3158 3157 3157 3157 3156 3156 3157 3158 3159 3160 3161 3161 3160 3162 3162 3162 3162
3144 3146 3143 3143 3142 3142 3143 3147 3147 3148 3151 3151 3152 3150 3147 3149 3150 3152 3153 3151 3148 3150 3149 3149 3152 3153 3154 3155 3155 3155 3155 3155 3155 3154 3154 3153 3153 3153 3153 3153 3154 3155 3156 3157 3157 3158 3158 3157 3158
3140 3142 3143 3140 3140 3141 3142 3146 3146 3147 3150 3151 3151 3147 3145 3147 3147 3147 3147 3144 3142 3142 3143 3145 3149 3149 3151 3150 3149 3151 3150 3151 3150 3150 3149 3149 3149 3149 3149 3149 3149 3149 3150 3151 3151 3152 3153 3153 3154
3139 3137 3139 3138 3137 3138 3143 3144 3145 3144 3147 3149 3148 3144 3142 3143 3141 3141 3140 3138 3137 3137 3138 3143 3145 3145 3145 3145 3145 3144 3143 3144 3145 3145 3145 3144 3144 3144 3143 3144 3143 3143 3143 3144 3145 3147 3147 3147 3148
3136 3136 3136 3136 3132 3135 3138 3142 3142 3142 3144 3143 3140 3139 3141 3139 3135 3134 3135 3133 3135 3133 3134 3137 3138 3139 3139 3140 3140 3140 3139 3140 3137 3137 3137 3136 3137 3137 3138 3137 3138 3138 3137 3138 3138 3138 3139 3139 3140
3133 3133 3133 3131 3130 3131 3133 3134 3135 3137 3138 3136 3137 3137 3135 3132 3131 3128 3130 3129 3129 3128 3129 3129 3130 3131 3131 3132 3133 3133 3133 3133 3133 3133 3131 3130 3132 3133 3132 3132 3131 3131 3131 3130 3131 3131 3132 3132 3133
3130 3127 3129 3128 3128 3128 3129 3130 3131 3132 3132 3132 3133 3134 3127 3128 3127 3127 3126 3124 3124 3124 3123 3123 3122 3122 3123 3124 3124 3124 3125 3125 3126 3126 3125 3125 3125 3126 3126 3126 3125 3125 3126 3125 3124 3123 3124 3125 3125
3122 3122 3123 3123 3124 3125 3124 3126 3124 3127 3127 3129 3130 3130 3120 3122 3123 3123 3122 3121 3119 3118 3117 3117 3116 3114 3115 3115 3115 3115 3116 3116 3116 3117 3117 3117 3117 3118 3119 3119 3118 3117 3118 3118 3118 3118 3116 3115 3116
3119 3119 3118 3120 3120 3120 3123 3123 3120 3122 3123 3126 3129 3127 3115 3112 3117 3118 3116 3115 3113 3113 3112 3111 3110 3109 3108 3108 3107 3107 3107 3107 3107 3108 3108 3108 3109 3110 3112 3112 3110 3109 3110 3110 3109 3109 3108 3108 3107
3115 3115 3114 3116 3115 3115 3118 3122 3119 3119 3120 3122 3123 3122 3112 3104 3110 3111 3110 3109 3108 3108 3107 3106 3106 3105 3103 3102 3101 3100 3100 3099 3099 3099 3099 3100 3100 3101 3103 3103 3100 3104 3105 3103 3100 3101 3101 3102 3102
3109 3110 3111 3111 3110 3112 3114 3116 3118 3120 3119 3116 3117 3116 3107 3102 3104 3105 3104 3103 3102 3102 3102 3102 3101 3100 3098 3097 3096 3094 3093 3092 3091 3090 3090 3090 3091 3092 3093 3094 3094 3096 3097 3096 3096 3096 3096 3096 3094
3105 3105 3106 3107 3109 3108 3108 3111 3113 3114 3115 3109 3109 3108 3102 3099 3098 3098 3098 3098 3097 3097 3095 3094 3094 3093 3092 3090 3089 3087 3086 3085 3084 3083 3083 3082 3082 3083 3083 3084 3085 3085 3086 3088 3088 3088 3088 3089 3086
3101 3102 3103 3105 3105 3106 3104 3104 3106 3107 3108 3104 3106 3102 3099 3095 3092 3093 3093 3092 3092 3091 3089 3089 3088 3087 3086 3084 3082 3081 3080 3077 3077 3075 3074 3075 3075 3075 3074 3074 3076 3076 3077 3078 3078 3080 3081 3082 3080
3098 3097 3099 3101 3102 3099 3100 3098 3099 3098 3100 3096 3100 3098 3095 3094 3091 3088 3088 3088 3086 3086 3084 3082 3081 3081 3079 3077 3076 3074 3073 3070 3071 3068 3067 3067 3067 3067 3068 3066 3067 3067 3067 3069 3070 3070 3072 3073 3074
3093 3095 3095 3095 3098 3095 3098 3089 3090 3088 3088 3088 3091 3090 3089 3090 3090 3087 3085 3083 3081 3080 3080 3078 3076 3076 3075 3073 3070 3068 3066 3064 3062 3061 3061 3059 3058 3058 3059 3060 3059 3059 3059 3060 3061 3062 3062 3063 3064
3089 3091 3089 3090 3092 3092 3091 3090 3084 3084 3078 3079 3083 3085 3084 3084 3084 3083 3082 3080 3079 3077 3076 3075 3073 3072 3071 3070 3067 3064 3062 3060 3057 3056 3054 3053 3051 3050 3051 3051 3051 3050 3050 3050 3051 3052 3053 3054 3053
3087 3084 3087 3088 3089 3082 3086 3088 3074 3073 3071 3072 3077 3079 3082 3082 3081 3080 3079 3078 3076 3076 3074 3072 3070 3069 3068 3066 3063 3061 3058 3056 3053 3051 3048 3047 3045 3043 3041 3041 3041 3041 3041 3041 3041 3042 3043 3043 3044
3079 3082 3083 3083 3080 3070 3074 3074 3070 3069 3067 3069 3071 3073 3075 3077 3076 3076 3075 3075 3073 3073 3071 3069 3068 3066 3064 3062 3060 3056 3053 3051 3048 3045 3043 3041 3039 3036 3034 3032 3031 3031 3031 3031 3031 3031 3032 3033 3034
3071 3073 3069 3071 3068 3064 3065 3061 3064 3066 3065 3067 3067 3069 3071 3072 3072 3071 3071 3071 3070 3070 3068 3066 3065 3063 3061 3058 3055 3052 3049 3045 3043 3040 3037 3034 3033 3031 3029 3026 3023 3022 3021 3018 3017 3018 3019 3022 3023
3063 3063 3069 3066 3065 3066 3063 3062 3061 3061 3060 3062 3063 3063 3066 3067 3067 3067 3067 3067 3066 3065 3064 3062 3061 3059 3057 3054 3051 3047 3044 3041 3038 3035 3032 3029 3027 3024 3022 3020 3017 3016 3015 3011 3007 3007 3008 3010 3014
3055 3061 3063 3064 3062 3063 3055 3056 3055 3053 3053 3055 3058 3059 3062 3062 3062 3063 3061 3061 3061 3060 3059 3058 3057 3055 3053 3050 3047 3044 3040 3037 3034 3031 3027 3024 3021 3019 3017 3014 3010 3010 3010 3007 3004 3002 3003 3002 3002
3050 3051 3053 3058 3056 3054 3054 3052 3049 3050 3050 3051 3053 3055 3057 3057 3057 3057 3055 3055 3056 3056 3055 3054 3052 3050 3048 3045 3042 3039 3036 3033 3030 3026 3023 3020 3017 3015 3012 3010 3007 3006 3004 3002 3000 2996 2994 2994 2994
3043 3045 3048 3050 3051 3051 3051 3045 3048 3047 3048 3048 3048 3048 3049 3051 3051 3051 3050 3050 3050 3051 3050 3050 3049 3047 3043 3040 3038 3034 3031 3029 3027 3024 3021 3018 3015 3013 3011 3009 3006 3005 3004 3001 2998 2994 2993 2991 2990
Wind_Speed
6 5 3 2 1 8 19 13 7 4 4 0 4 4 6 14 11 6 1 7 5 5 5 5 5 4 5 4 5 6 7 6 6 4 2 2 3 5 7 8 9 10 10 8 7 5 3 2 2
6 5 1 3 10 16 7 7 6 4 4 2 6 6 3 10 11 6 3 6 5 6 5 5 5 4 5 5 6 7 8 9 8 7 6 6 5 3 3 4 5 7 7 7 6 6 4 3 3
5 4 2 5 13 18 7 9 5 3 4 4 2 7 4 5 6 3 5 6 7 7 6 5 5 6 7 8 9 9 9 9 10 10 8 8 8 7 6 4 3 2 2 3 4 4 4 4 3
4 2 1 6 14 2 5 4 4 2 2 4 2 0 5 4 7 4 8 9 10 8 6 5 6 7 9 11 12 13 12 11 12 12 11 10 11 10 10 9 7 5 4 3 1 1 1 1 1
5 4 10 16 17 4 1 3 3 2 3 3 3 11 5 6 6 10 11 10 8 8 8 8 8 8 8 10 11 13 13 14 13 14 14 14 13 13 13 13 12 11 9 8 6 5 4 3 2
2 5 12 19 6 5 4 3 3 3 2 2 5 3 3 12 14 12 13 13 13 12 12 12 11 9 9 9 9 9 9 10 12 14 16 16 17 17 17 17 16 15 14 13 12 10 9 8 6
6 9 17 17 2 5 6 6 4 4 3 7 11 2 9 16 9 11 12 17 17 15 15 15 13 12 12 13 13 13 12 11 12 13 15 17 19 20 20 21 20 19 19 18 17 16 14 13 11
10 10 15 18 11 6 11 5 9 4 7 10 12 3 12 19 17 11 16 9 21 20 19 18 18 17 16 15 15 16 15 13 13 15 16 18 19 19 20 22 23 23 23 22 21 20 19 18 17
7 9 14 14 11 8 8 4 6 10 5 4 4 13 22 20 18 16 15 6 24 25 24 25 24 22 20 18 17 17 18 18 19 17 17 17 17 18 19 20 23 25 26 26 26 25 24 23 22
11 10 7 3 7 5 3 11 5 2 4 5 4 12 23 22 24 24 21 23 30 32 28 30 27 25 23 23 23 22 22 22 23 24 22 21 20 20 22 22 21 24 27 28 29 29 28 29 26
10 16 11 7 14 11 7 7 5 4 6 8 14 18 25 17 21 25 27 33 36 36 35 31 27 26 27 26 27 29 26 28 29 29 28 28 26 26 25 25 26 25 24 27 29 30 31 32 31
16 12 12 6 17 16 14 9 11 10 10 15 20 25 14 10 27 30 31 32 32 35 36 34 33 31 33 32 32 31 31 33 33 34 24 23 29 30 27 25 25 27 26 27 28 30 31 33 35
16 15 12 15 17 15 17 17 15 12 11 23 23 17 10 24 29 32 29 30 30 32 33 33 34 35 37 38 37 37 38 36 34 31 32 39 37 31 29 29 28 26 27 28 28 30 31 33 35
9 15 16 16 12 13 15 15 13 9 18 21 9 5 21 26 28 27 27 27 28 28 29 29 30 30 32 33 36 39 40 41 40 42 45 42 38 34 32 32 32 33 32 32 31 30 32 33 36
18 19 19 20 17 14 15 17 17 13 20 10 6 12 24 31 26 22 22 27 29 30 30 29 29 30 31 31 31 34 36 38 40 42 43 43 42 40 38 34 34 36 37 36 34 32 32 34 36
17 15 17 14 20 18 14 13 6 20 16 10 9 13 23 37 26 22 25 25 26 26 27 27 28 29 28 29 30 30 31 33 36 38 38 40 43 43 41 39 39 38 35 36 38 37 37 36 36
17 17 19 15 21 15 12 5 10 12 13 14 12 12 23 37 28 22 22 23 23 24 25 26 26 26 28 30 31 32 33 34 36 36 38 39 39 42 42 42 43 40 34 32 35 34 34 33 36
20 24 19 21 20 19 15 16 16 15 17 16 19 14 27 36 27 21 22 22 23 23 24 24 24 24 25 27 27 29 31 33 35 37 37 40 40 41 43 42 41 39 36 34 33 32 29 28 29
22 17 15 13 12 15 17 19 21 22 21 24 20 17 27 28 25 22 22 22 24 25 26 26 27 27 26 27 28 29 31 33 35 38 39 38 39 43 41 45 41 41 38 37 37 35 34 32 32
25 23 21 20 20 22 19 21 23 23 24 24 17 23 30 27 22 22 22 26 23 24 25 27 27 28 29 29 29 29 29 34 33 38 39 41 41 39 40 42 40 41 40 40 39 39 37 34 33
22 21 21 23 20 15 17 26 28 28 25 28 32 27 28 22 21 24 24 22 26 26 25 26 26 26 27 27 27 26 28 32 31 36 37 37 39 42 39 34 40 39 40 41 40 40 40 38 32
26 22 22 23 19 24 18 18 16 10 28 31 29 29 27 22 21 22 23 25 24 22 22 23 23 21 20 20 22 24 28 30 31 32 32 34 33 33 34 40 40 35 39 40 40 40 39 39 36
25 20 15 14 18 21 22 21 26 25 26 26 28 22 16 15 19 22 23 21 21 20 19 19 18 17 17 17 19 20 21 22 26 29 31 31 33 33 35 34 33 36 36 37 38 38 37 37 38
20 18 11 14 16 19 23 23 20 20 26 25 21 21 12 16 18 19 19 18 19 18 18 17 18 18 19 21 21 21 23 22 22 22 25 30 36 38 38 36 38 36 38 38 39 39 37 34 38
22 14 7 10 10 10 17 23 28 6 11 15 26 26 16 15 16 18 17 18 18 15 16 17 19 20 22 24 25 25 25 25 25 23 22 22 24 29 34 35 35 35 40 43 46 43 42 45 45
29 27 13 9 9 14 13 11 13 17 16 18 22 23 21 14 16 19 18 19 18 17 17 19 21 22 23 25 26 27 27 26 26 26 25 25 25 26 27 26 23 27 33 40 45 48 51 51 44
22 37 26 23 22 11 15 15 2 16 24 23 23 18 15 14 17 18 20 20 20 19 18 19 21 23 24 26 27 27 27 26 25 25 26 26 26 25 26 24 22 26 30 33 27 31 30 34 38
29 21 22 20 6 10 16 22 22 28 24 26 19 15 11 11 14 19 23 22 22 21 20 21 22 23 25 27 28 26 26 25 25 25 25 24 23 22 22 23 21 24 28 24 24 26 28 29 30
24 28 19 18 21 3 7 6 8 15 21 18 16 13 13 11 15 20 25 26 24 23 23 23 23 24 25 27 27 26 25 24 24 23 23 20 19 18 16 14 13 14 16 21 22 18 18 23 26
21 27 27 20 16 20 22 27 8 3 7 13 18 15 18 15 17 20 25 28 27 25 26 25 24 25 26 27 27 25 22 22 21 20 19 18 16 14 7 4 7 9 8 8 10 8 6 8 12
Wind_Direction
290 283 265 358 278 242 253 232 125 85 129 261 349 129 44 66 42 89 92 195 176 162 192 192 205 224 238 253 275 284 288 291 291 297 319 3 39 52 55 53 55 58 59 59 58 58 55 48 30
275 278 294 128 252 272 328 89 132 117 212 317 45 77 102 96 83 118 147 138 158 158 171 178 191 207 238 244 255 267 275 284 289 287 290 298 310 330 3 32 46 46 49 54 51 46 40 30 25
242 243 198 257 250 261 22 78 103 45 76 109 130 186 153 103 137 158 142 153 174 166 163 180 197 220 235 246 249 252 257 266 276 281 282 285 289 295 300 307 333 10 30 36 42 41 40 32 25
204 85 264 249 266 291 51 88 106 47 79 108 141 210 172 152 119 133 127 190 187 180 180 199 224 236 242 248 251 251 249 251 258 266 271 272 276 282 283 283 280 277 280 271 257 299 11 48 27
146 137 258 260 260 161 165 117 126 214 144 95 127 141 192 157 196 197 211 223 220 213 219 235 243 245 246 250 250 255 256 255 256 260 264 266 266 268 271 273 271 268 262 262 258 249 249 243 238
177 245 265 256 197 106 145 179 169 206 237 182 154 133 257 255 218 217 228 233 226 231 236 241 243 248 255 255 253 258 266 272 273 271 270 268 266 264 263 264 265 267 266 262 259 256 253 251 246
241 239 262 284 260 170 190 191 196 206 220 216 198 109 173 257 252 237 235 246 242 245 250 248 245 251 260 266 267 264 263 265 269 272 274 276 275 273 271 269 267 264 263 264 263 263 263 259 253
245 249 267 261 264 133 189 186 218 175 226 229 236 207 214 246 249 257 245 270 252 249 252 249 254 256 260 265 276 279 278 276 281 285 279 271 268 268 270 269 270 270 267 265 261 259 262 265 263
226 247 241 280 202 154 211 151 222 223 202 255 218 229 235 241 258 249 240 236 256 252 245 252 255 256 256 262 264 270 272 274 275 276 273 272 273 275 277 275 271 269 268 267 267 263 257 257 261
210 226 292 241 144 165 239 174 211 223 210 236 250 259 257 249 252 256 244 241 254 257 252 262 265 258 261 265 266 270 268 271 275 276 275 270 269 273 274 272 269 268 262 262 262 263 263 261 260
235 223 303 290 222 173 174 235 252 241 233 259 220 228 252 272 268 262 255 255 262 269 274 275 270 264 264 266 271 278 275 282 274 270 273 273 270 269 272 272 275 269 264 262 262 261 262 264 263
247 241 251 234 262 239 230 238 234 235 229 239 248 250 264 247 261 264 264 266 269 271 275 275 272 269 269 269 271 272 271 279 275 286 274 262 270 269 272 272 273 273 268 264 261 259 260 259 260
250 235 260 253 252 247 243 242 249 245 237 244 254 262 228 249 260 266 274 275 274 273 275 274 272 269 268 268 267 268 270 269 264 270 272 272 280 274 274 276 269 265 267 264 261 259 260 260 259
243 231 231 253 243 257 258 257 258 258 227 249 253 243 253 259 265 276 279 282 281 280 280 279 277 273 270 267 265 264 263 262 262 263 264 267 272 270 271 272 269 271 266 265 262 259 260 262 263
244 250 252 253 243 248 249 268 258 222 241 246 226 244 261 268 279 279 280 283 281 281 282 282 282 283 281 277 271 268 266 261 260 260 262 264 264 264 267 269 269 267 268 268 262 257 254 253 253
250 255 252 256 222 220 252 272 251 204 233 231 223 248 271 275 284 284 285 286 286 286 285 282 282 281 281 280 280 276 272 266 262 260 260 260 259 260 265 269 269 266 266 266 263 259 254 249 251
236 245 236 229 215 227 234 219 215 235 238 223 240 249 258 275 291 292 287 286 286 288 288 287 285 281 279 278 276 275 273 270 268 265 262 260 265 260 259 262 265 269 268 265 257 258 261 264 261
227 231 246 250 211 206 224 249 235 246 266 244 238 241 252 270 287 289 289 290 292 294 294 294 293 290 286 282 278 275 273 271 267 264 260 256 255 263 264 262 265 266 264 265 261 262 265 269 274
243 272 260 241 235 233 236 242 251 261 253 244 254 241 255 272 287 288 289 287 290 295 294 293 294 294 290 285 281 276 272 268 266 265 263 258 263 261 260 263 261 262 262 261 258 259 262 268 276
243 251 251 253 259 263 260 259 265 256 254 237 231 240 266 273 282 292 295 297 298 295 294 295 295 293 291 288 283 279 275 272 265 263 264 261 259 258 260 262 262 261 261 261 261 261 261 265 273
234 239 249 256 257 257 269 269 267 258 241 228 242 248 264 264 281 291 292 297 296 298 301 300 301 301 300 296 291 287 285 282 278 271 266 267 266 260 266 272 263 261 261 259 259 262 266 267 266
241 243 253 253 255 259 259 276 268 242 214 226 240 254 255 261 270 277 291 294 298 302 304 302 302 301 302 308 304 297 297 288 286 282 272 267 269 273 273 269 269 270 266 262 260 260 264 266 267
244 253 246 236 245 266 254 264 260 250 226 219 228 241 251 259 274 281 286 291 298 301 301 301 301 302 305 312 316 318 318 310 293 284 277 273 272 276 279 277 272 267 267 262 260 260 261 264 270
241 239 233 239 248 254 250 246 270 256 242 200 208 220 240 265 267 272 274 280 283 286 291 296 303 310 315 318 318 318 316 316 316 307 296 286 278 272 274 275 274 272 268 267 262 265 266 267 270
215 202 214 226 219 245 248 242 242 259 173 195 198 212 267 272 274 270 266 268 272 280 288 296 305 311 315 317 320 322 319 314 313 313 314 308 302 289 280 279 280 280 274 269 264 261 264 264 267
211 203 199 220 228 252 263 233 246 245 202 177 209 241 277 270 277 270 262 263 267 278 289 299 303 309 314 318 321 322 321 319 314 310 307 307 307 303 303 285 296 290 291 283 270 263 263 260 267
218 218 226 261 275 286 262 248 266 205 210 209 215 250 256 274 278 269 262 266 272 281 292 300 303 308 314 319 322 323 321 320 319 316 311 305 303 300 294 293 298 297 293 298 284 272 272 264 260
226 221 215 229 235 233 250 254 267 222 218 216 219 221 259 276 278 270 265 266 270 279 289 294 298 306 314 321 324 322 319 319 321 320 316 309 303 301 300 291 293 287 294 299 283 270 261 259 265
213 227 216 221 229 264 278 272 241 226 235 204 217 237 271 270 287 273 266 264 269 275 281 289 295 302 312 318 322 321 320 319 322 321 317 313 309 308 306 307 314 302 300 283 275 272 280 272 271
218 221 221 223 234 236 255 260 262 272 259 235 228 259 257 264 281 273 269 270 271 271 276 282 291 301 311 317 321 320 319 317 319 318 315 313 307 300 292 333 5 13 351 356 6 2 326 316 300